RH
28 29 29 29 29 29 29 30 30 31 32 32 34 37 40 46 51 51 52 53 53 53 54 55 56 56 57 58 58 58 59 61 65 69 67 67 71 71 73 81 85 83
29 30 30 30 30 30 30 30 30 31 31 32 34 36 43 51 54 53 53 54 54 55 55 55 56 56 57 58 58 58 60 62 65 68 68 72 79 79 80 85 85 83
29 30 31 31 31 31 31 30 31 31 31 32 33 35 42 50 52 50 51 54 55 55 56 56 56 56 58 60 60 60 62 62 64 66 67 74 84 86 84 86 86 84
29 30 31 32 32 32 32 31 32 32 32 33 34 35 41 46 48 50 53 55 56 56 57 56 57 58 59 61 62 62 62 63 64 65 66 71 81 87 86 85 85 82
30 31 32 33 33 33 33 33 33 33 33 34 34 38 45 46 46 51 55 55 55 55 55 56 57 60 60 61 62 62 62 63 65 67 66 68 75 83 87 87 86 82
31 32 33 33 34 34 34 35 35 35 35 35 36 40 47 47 46 51 54 54 54 52 53 56 59 60 61 62 63 62 63 64 66 68 69 68 70 77 85 88 87 83
32 33 33 33 33 34 35 35 35 36 37 37 38 41 45 47 50 52 54 55 55 53 55 58 59 61 62 63 63 63 64 66 67 68 70 70 71 78 86 89 88 85
34 34 35 35 34 34 35 35 35 35 36 38 40 42 46 51 53 53 54 55 55 54 56 58 60 62 63 64 64 65 65 67 69 70 70 71 75 83 89 89 88 87
35 35 36 36 35 35 36 36 36 36 36 37 40 43 48 53 54 54 54 55 55 55 57 59 61 62 64 65 66 66 67 68 70 71 70 72 77 84 87 86 86 87
36 36 37 37 36 36 36 36 37 37 37 37 39 42 48 54 56 55 55 55 54 55 56 58 60 62 64 66 67 68 69 70 72 71 70 73 78 81 81 80 82 87
37 38 38 38 37 37 37 37 38 38 38 39 40 42 49 57 60 58 56 54 53 55 57 59 60 62 64 66 68 70 70 71 73 71 70 74 78 77 75 76 81 87
37 39 40 39 39 38 38 38 39 40 41 41 42 44 50 57 60 60 58 55 55 57 58 59 61 63 65 68 70 71 73 73 73 71 73 76 75 74 74 78 83 85
36 39 41 42 41 40 39 40 40 42 43 44 46 47 51 56 59 60 60 59 59 59 58 59 60 62 66 68 70 72 74 74 73 73 76 78 75 74 77 81 83 80
37 39 42 43 43 42 41 42 42 43 45 47 48 50 53 58 61 62 62 61 61 60 61 61 60 62 65 67 69 72 73 74 74 75 79 79 75 75 79 80 76 70
38 40 42 44 45 44 43 43 44 46 47 48 50 52 55 60 64 64 62 61 61 63 65 64 62 62 65 67 70 72 73 75 76 79 82 78 73 74 76 72 67 65
40 41 42 45 47 46 45 45 46 47 48 49 52 54 56 60 64 65 64 63 64 65 66 66 65 63 64 68 70 71 74 78 81 82 83 78 72 72 71 65 63 65
43 43 44 46 47 47 47 47 48 48 49 50 52 56 59 62 65 66 65 65 65 65 66 66 65 64 66 68 70 72 76 81 84 85 85 79 72 70 68 65 65 69
45 46 48 49 49 48 49 49 49 49 50 52 54 58 63 65 66 66 66 66 65 65 66 66 65 67 69 70 72 75 79 84 86 86 85 80 73 69 69 68 70 73
47 49 51 52 51 52 52 51 50 50 52 54 55 59 64 66 67 67 66 66 66 66 66 66 67 69 71 73 74 76 81 85 88 85 81 77 72 70 71 71 73 76
47 49 51 51 52 53 53 52 52 52 54 56 57 61 65 67 67 67 68 68 67 67 67 68 70 72 73 74 75 77 81 85 85 81 76 74 72 72 73 74 76 75
46 47 49 49 50 52 52 53 53 54 56 59 61 63 66 67 68 68 69 69 69 69 69 70 72 74 75 76 77 79 84 86 83 78 75 74 74 74 75 76 77 75
45 47 47 48 49 51 53 54 55 56 59 62 64 66 67 68 69 70 70 71 71 71 72 73 74 76 77 79 81 82 84 85 82 79 77 77 76 76 77 78 79 79
47 48 48 48 49 52 54 56 57 59 62 65 67 68 70 70 71 72 73 73 73 73 74 74 75 76 78 80 83 84 86 86 84 81 80 79 78 78 79 80 81 84
50 50 50 50 51 54 56 57 60 63 66 68 69 71 72 73 74 74 74 74 75 75 76 76 77 78 79 81 84 86 87 89 88 85 83 81 80 80 80 81 84 87
50 51 52 53 54 56 58 58 61 65 68 70 71 73 74 75 75 76 76 77 77 78 77 78 79 80 82 83 86 89 90 93 93 90 87 84 83 82 81 83 87 89
51 53 53 54 56 57 58 60 64 67 69 71 73 74 75 76 77 78 79 79 79 78 78 79 80 81 83 85 88 90 92 94 95 93 90 87 85 84 84 85 88 89